iso_date,epoch_date,Year,Hour,Min,DOY,POS_DOY,Lat,Lon,BP,Ts,Ta,has_bp,has_ts,has_ta,BuoyID,Buoy_Type,Buoy_Owner,Logistics,Hemisphere
2013-08-31T07:52:19Z,1377935539,2013,7,53,243.328,-999.0,70.2326,-138.7058,1009.5,6.6,-999.0,yes,yes,no,300234011244780,UPTEMPO,PSC-UPTEMPO,Healy,North
2013-08-31T07:58:04Z,1377935885,2013,7,58,243.332,-999.0,70.2326,-138.706,1009.7,6.64,-999.0,yes,yes,no,300234011244780,UPTEMPO,PSC-UPTEMPO,Healy,North
2013-08-31T08:02:24Z,1377936144,2013,8,3,243.335,-999.0,70.2326,-138.706,1009.7,6.6,-999.0,yes,yes,no,300234011244780,UPTEMPO,PSC-UPTEMPO,Healy,North
2013-08-31T08:08:09Z,1377936490,2013,8,8,243.339,-999.0,70.2324,-138.7062,1009.6,6.64,-999.0,yes,yes,no,300234011244780,UPTEMPO,PSC-UPTEMPO,Healy,North
2013-08-31T08:12:28Z,1377936749,2013,8,13,243.342,-999.0,70.2324,-138.7062,1009.7,6.6,-999.0,yes,yes,no,300234011244780,UPTEMPO,PSC-UPTEMPO,Healy,North
2013-08-31T08:18:14Z,1377937094,2013,8,18,243.346,-999.0,70.2324,-138.7064,1009.6,6.64,-999.0,yes,yes,no,300234011244780,UPTEMPO,PSC-UPTEMPO,Healy,North
2013-08-31T08:22:33Z,1377937354,2013,8,23,243.349,-999.0,70.2324,-138.7064,1009.6,6.64,-999.0,yes,yes,no,300234011244780,UPTEMPO,PSC-UPTEMPO,Healy,North
2013-08-31T08:28:19Z,1377937699,2013,8,28,243.353,-999.0,70.2324,-138.7064,1009.6,6.6,-999.0,yes,yes,no,300234011244780,UPTEMPO,PSC-UPTEMPO,Healy,North
2013-08-31T08:32:38Z,1377937958,2013,8,33,243.356,-999.0,70.2324,-138.7064,1009.8,6.6,-999.0,yes,yes,no,300234011244780,UPTEMPO,PSC-UPTEMPO,Healy,North
2013-08-31T08:38:24Z,1377938304,2013,8,38,243.36,-999.0,70.2324,-138.7064,1009.8,6.64,-999.0,yes,yes,no,300234011244780,UPTEMPO,PSC-UPTEMPO,Healy,North
2013-08-31T08:44:09Z,1377938650,2013,8,44,243.364,-999.0,70.2324,-138.7064,1009.8,6.6,-999.0,yes,yes,no,300234011244780,UPTEMPO,PSC-UPTEMPO,Healy,North
2013-08-31T09:00:00Z,1377939600,2013,9,0,243.375,-999.0,70.2326,-138.7064,1009.9,6.6,-999.0,yes,yes,no,300234011244780,UPTEMPO,PSC-UPTEMPO,Healy,North
2013-08-31T10:00:28Z,1377943229,2013,10,0,243.417,-999.0,70.2332,-138.705,1009.7,6.58,-999.0,yes,yes,no,300234011244780,UPTEMPO,PSC-UPTEMPO,Healy,North
2013-08-31T10:59:31Z,1377946771,2013,11,0,243.458,-999.0,70.2346,-138.701,1009.7,6.56,-999.0,yes,yes,no,300234011244780,UPTEMPO,PSC-UPTEMPO,Healy,North
2013-08-31T12:00:00Z,1377950400,2013,12,0,243.5,-999.0,70.2364,-138.6922,1009.7,6.36,-999.0,yes,yes,no,300234011244780,UPTEMPO,PSC-UPTEMPO,Healy,North
2013-08-31T13:00:28Z,1377954029,2013,13,0,243.542,-999.0,70.2378,-138.6796,1009.6,6.24,-999.0,yes,yes,no,300234011244780,UPTEMPO,PSC-UPTEMPO,Healy,North
2013-08-31T13:59:31Z,1377957571,2013,14,0,243.583,-999.0,70.2388,-138.6628,1009.5,6.16,-999.0,yes,yes,no,300234011244780,UPTEMPO,PSC-UPTEMPO,Healy,North
2013-08-31T15:00:00Z,1377961200,2013,15,0,243.625,-999.0,70.2376,-138.6416,1009.4,6.14,-999.0,yes,yes,no,300234011244780,UPTEMPO,PSC-UPTEMPO,Healy,North
2013-08-31T16:00:28Z,1377964829,2013,16,0,243.667,-999.0,70.2346,-138.618,1009.3,6.16,-999.0,yes,yes,no,300234011244780,UPTEMPO,PSC-UPTEMPO,Healy,North
2013-08-31T16:59:31Z,1377968371,2013,17,0,243.708,-999.0,70.2278,-138.5882,1009.3,6.24,-999.0,yes,yes,no,300234011244780,UPTEMPO,PSC-UPTEMPO,Healy,North
2013-08-31T18:00:00Z,1377972000,2013,18,0,243.75,-999.0,70.2152,-138.5588,1009.6,6.16,-999.0,yes,yes,no,300234011244780,UPTEMPO,PSC-UPTEMPO,Healy,North
2013-08-31T19:00:28Z,1377975629,2013,19,0,243.792,-999.0,70.198,-138.5436,1009.6,6.12,-999.0,yes,yes,no,300234011244780,UPTEMPO,PSC-UPTEMPO,Healy,North
2013-08-31T19:59:31Z,1377979171,2013,20,0,243.833,-999.0,70.1824,-138.544,1010.0,6.0,-999.0,yes,yes,no,300234011244780,UPTEMPO,PSC-UPTEMPO,Healy,North
2013-08-31T21:00:00Z,1377982800,2013,21,0,243.875,-999.0,70.1704,-138.5514,1009.8,5.82,-999.0,yes,yes,no,300234011244780,UPTEMPO,PSC-UPTEMPO,Healy,North
2013-08-31T22:00:28Z,1377986429,2013,22,0,243.917,-999.0,70.1622,-138.5542,1010.1,5.48,-999.0,yes,yes,no,300234011244780,UPTEMPO,PSC-UPTEMPO,Healy,North
2013-08-31T22:59:31Z,1377989971,2013,23,0,243.958,-999.0,70.1564,-138.5518,1010.2,5.28,-999.0,yes,yes,no,300234011244780,UPTEMPO,PSC-UPTEMPO,Healy,North
2013-09-01T00:00:00Z,1377993600,2013,0,0,244.0,-999.0,70.1496,-138.5416,1010.0,5.04,-999.0,yes,yes,no,300234011244780,UPTEMPO,PSC-UPTEMPO,Healy,North
2013-09-01T01:00:28Z,1377997229,2013,1,0,244.042,-999.0,70.1418,-138.5252,1009.8,4.8,-999.0,yes,yes,no,300234011244780,UPTEMPO,PSC-UPTEMPO,Healy,North
2013-09-01T01:59:31Z,1378000771,2013,2,0,244.083,-999.0,70.13,-138.5074,1009.7,4.68,-999.0,yes,yes,no,300234011244780,UPTEMPO,PSC-UPTEMPO,Healy,North
2013-09-01T03:00:00Z,1378004400,2013,3,0,244.125,-999.0,70.1144,-138.4928,1009.7,4.52,-999.0,yes,yes,no,300234011244780,UPTEMPO,PSC-UPTEMPO,Healy,North
2013-09-01T04:00:28Z,1378008029,2013,4,0,244.167,-999.0,70.0966,-138.4886,1009.9,4.4,-999.0,yes,yes,no,300234011244780,UPTEMPO,PSC-UPTEMPO,Healy,North
2013-09-01T04:59:31Z,1378011571,2013,5,0,244.208,-999.0,70.0796,-138.5002,1010.3,4.24,-999.0,yes,yes,no,300234011244780,UPTEMPO,PSC-UPTEMPO,Healy,North
2013-09-01T06:00:00Z,1378015200,2013,6,0,244.25,-999.0,70.067,-138.5242,1010.2,3.96,-999.0,yes,yes,no,300234011244780,UPTEMPO,PSC-UPTEMPO,Healy,North
2013-09-01T07:00:28Z,1378018829,2013,7,0,244.292,-999.0,70.061,-138.5532,1010.8,3.88,-999.0,yes,yes,no,300234011244780,UPTEMPO,PSC-UPTEMPO,Healy,North
2013-09-01T07:59:31Z,1378022371,2013,8,0,244.333,-999.0,70.06,-138.5746,1011.4,3.84,-999.0,yes,yes,no,300234011244780,UPTEMPO,PSC-UPTEMPO,Healy,North
2013-09-01T09:00:00Z,1378026000,2013,9,0,244.375,-999.0,70.0604,-138.589,1011.8,3.74,-999.0,yes,yes,no,300234011244780,UPTEMPO,PSC-UPTEMPO,Healy,North
2013-09-01T10:00:28Z,1378029629,2013,10,0,244.417,-999.0,70.0618,-138.5964,1012.2,3.64,-999.0,yes,yes,no,300234011244780,UPTEMPO,PSC-UPTEMPO,Healy,North
2013-09-01T10:59:31Z,1378033171,2013,11,0,244.458,-999.0,70.0626,-138.5958,1012.8,3.68,-999.0,yes,yes,no,300234011244780,UPTEMPO,PSC-UPTEMPO,Healy,North
2013-09-01T12:00:00Z,1378036800,2013,12,0,244.5,-999.0,70.0618,-138.5908,1013.2,3.64,-999.0,yes,yes,no,300234011244780,UPTEMPO,PSC-UPTEMPO,Healy,North
2013-09-01T13:00:28Z,1378040429,2013,13,0,244.542,-999.0,70.059,-138.5842,1013.4,3.64,-999.0,yes,yes,no,300234011244780,UPTEMPO,PSC-UPTEMPO,Healy,North
2013-09-01T13:59:31Z,1378043971,2013,14,0,244.583,-999.0,70.0546,-138.5796,1014.0,3.64,-999.0,yes,yes,no,300234011244780,UPTEMPO,PSC-UPTEMPO,Healy,North
2013-09-01T15:00:00Z,1378047600,2013,15,0,244.625,-999.0,70.0484,-138.5764,1014.2,3.6,-999.0,yes,yes,no,300234011244780,UPTEMPO,PSC-UPTEMPO,Healy,North
2013-09-01T16:00:28Z,1378051229,2013,16,0,244.667,-999.0,70.0412,-138.5744,1014.4,3.56,-999.0,yes,yes,no,300234011244780,UPTEMPO,PSC-UPTEMPO,Healy,North
2013-09-01T16:59:31Z,1378054771,2013,17,0,244.708,-999.0,70.0332,-138.5758,1014.8,3.48,-999.0,yes,yes,no,300234011244780,UPTEMPO,PSC-UPTEMPO,Healy,North
2013-09-01T18:00:00Z,1378058400,2013,18,0,244.75,-999.0,70.0248,-138.5824,1015.3,3.44,-999.0,yes,yes,no,300234011244780,UPTEMPO,PSC-UPTEMPO,Healy,North
2013-09-01T19:00:28Z,1378062029,2013,19,0,244.792,-999.0,70.0176,-138.594,1015.5,3.44,-999.0,yes,yes,no,300234011244780,UPTEMPO,PSC-UPTEMPO,Healy,North
2013-09-01T19:59:31Z,1378065571,2013,20,0,244.833,-999.0,70.0126,-138.6066,1016.1,3.42,-999.0,yes,yes,no,300234011244780,UPTEMPO,PSC-UPTEMPO,Healy,North
2013-09-01T21:00:00Z,1378069200,2013,21,0,244.875,-999.0,70.0102,-138.6186,1016.5,3.4,-999.0,yes,yes,no,300234011244780,UPTEMPO,PSC-UPTEMPO,Healy,North
2013-09-01T22:00:28Z,1378072829,2013,22,0,244.917,-999.0,70.0096,-138.6262,1016.7,3.42,-999.0,yes,yes,no,300234011244780,UPTEMPO,PSC-UPTEMPO,Healy,North
2013-09-01T22:59:31Z,1378076371,2013,23,0,244.958,-999.0,70.0092,-138.628,1016.8,3.42,-999.0,yes,yes,no,300234011244780,UPTEMPO,PSC-UPTEMPO,Healy,North
2013-09-02T00:00:00Z,1378080000,2013,0,0,245.0,-999.0,70.0078,-138.6244,1016.8,3.4,-999.0,yes,yes,no,300234011244780,UPTEMPO,PSC-UPTEMPO,Healy,North
2013-09-02T01:00:28Z,1378083629,2013,1,0,245.042,-999.0,70.0052,-138.6184,1016.7,3.4,-999.0,yes,yes,no,300234011244780,UPTEMPO,PSC-UPTEMPO,Healy,North
2013-09-02T01:59:31Z,1378087171,2013,2,0,245.083,-999.0,70.0018,-138.6096,1016.8,3.42,-999.0,yes,yes,no,300234011244780,UPTEMPO,PSC-UPTEMPO,Healy,North
2013-09-02T03:00:00Z,1378090800,2013,3,0,245.125,-999.0,69.9966,-138.6026,1016.7,3.42,-999.0,yes,yes,no,300234011244780,UPTEMPO,PSC-UPTEMPO,Healy,North
2013-09-02T04:00:28Z,1378094429,2013,4,0,245.167,-999.0,69.9908,-138.6016,1016.3,3.42,-999.0,yes,yes,no,300234011244780,UPTEMPO,PSC-UPTEMPO,Healy,North
2013-09-02T04:59:31Z,1378097971,2013,5,0,245.208,-999.0,69.9844,-138.6066,1016.0,3.42,-999.0,yes,yes,no,300234011244780,UPTEMPO,PSC-UPTEMPO,Healy,North
2013-09-02T06:00:00Z,1378101600,2013,6,0,245.25,-999.0,69.9794,-138.6132,1015.9,3.4,-999.0,yes,yes,no,300234011244780,UPTEMPO,PSC-UPTEMPO,Healy,North
2013-09-02T07:00:28Z,1378105229,2013,7,0,245.292,-999.0,69.975,-138.6196,1015.7,3.36,-999.0,yes,yes,no,300234011244780,UPTEMPO,PSC-UPTEMPO,Healy,North
2013-09-02T07:59:31Z,1378108771,2013,8,0,245.333,-999.0,69.9716,-138.6272,1015.5,3.32,-999.0,yes,yes,no,300234011244780,UPTEMPO,PSC-UPTEMPO,Healy,North
2013-09-02T09:00:00Z,1378112400,2013,9,0,245.375,-999.0,69.9694,-138.6352,1015.2,3.2,-999.0,yes,yes,no,300234011244780,UPTEMPO,PSC-UPTEMPO,Healy,North
2013-09-02T10:00:28Z,1378116029,2013,10,0,245.417,-999.0,69.9688,-138.6424,1014.7,3.2,-999.0,yes,yes,no,300234011244780,UPTEMPO,PSC-UPTEMPO,Healy,North
2013-09-02T10:59:31Z,1378119571,2013,11,0,245.458,-999.0,69.9696,-138.6476,1014.2,3.2,-999.0,yes,yes,no,300234011244780,UPTEMPO,PSC-UPTEMPO,Healy,North
2013-09-02T12:00:00Z,1378123200,2013,12,0,245.5,-999.0,69.9706,-138.6508,1013.8,3.22,-999.0,yes,yes,no,300234011244780,UPTEMPO,PSC-UPTEMPO,Healy,North
2013-09-02T13:00:28Z,1378126829,2013,13,0,245.542,-999.0,69.9718,-138.651,1013.3,3.24,-999.0,yes,yes,no,300234011244780,UPTEMPO,PSC-UPTEMPO,Healy,North
2013-09-02T13:59:31Z,1378130371,2013,14,0,245.583,-999.0,69.9716,-138.649,1012.9,3.24,-999.0,yes,yes,no,300234011244780,UPTEMPO,PSC-UPTEMPO,Healy,North
2013-09-02T15:00:00Z,1378134000,2013,15,0,245.625,-999.0,69.97,-138.647,1012.7,3.24,-999.0,yes,yes,no,300234011244780,UPTEMPO,PSC-UPTEMPO,Healy,North
2013-09-02T16:00:28Z,1378137629,2013,16,0,245.667,-999.0,69.9674,-138.6462,1012.2,3.32,-999.0,yes,yes,no,300234011244780,UPTEMPO,PSC-UPTEMPO,Healy,North
2013-09-02T16:59:31Z,1378141171,2013,17,0,245.708,-999.0,69.9638,-138.6486,1011.8,3.28,-999.0,yes,yes,no,300234011244780,UPTEMPO,PSC-UPTEMPO,Healy,North
2013-09-02T18:00:00Z,1378144800,2013,18,0,245.75,-999.0,69.9604,-138.656,1011.6,3.32,-999.0,yes,yes,no,300234011244780,UPTEMPO,PSC-UPTEMPO,Healy,North
2013-09-02T19:00:28Z,1378148429,2013,19,0,245.792,-999.0,69.958,-138.6668,1011.1,3.32,-999.0,yes,yes,no,300234011244780,UPTEMPO,PSC-UPTEMPO,Healy,North
2013-09-02T19:59:31Z,1378151971,2013,20,0,245.833,-999.0,69.9566,-138.6802,1011.1,3.32,-999.0,yes,yes,no,300234011244780,UPTEMPO,PSC-UPTEMPO,Healy,North
2013-09-02T21:00:00Z,1378155600,2013,21,0,245.875,-999.0,69.9566,-138.6942,1010.9,3.4,-999.0,yes,yes,no,300234011244780,UPTEMPO,PSC-UPTEMPO,Healy,North
2013-09-02T22:00:28Z,1378159229,2013,22,0,245.917,-999.0,69.9578,-138.7078,1011.0,3.4,-999.0,yes,yes,no,300234011244780,UPTEMPO,PSC-UPTEMPO,Healy,North
2013-09-02T22:59:31Z,1378162771,2013,23,0,245.958,-999.0,69.9602,-138.7202,1011.0,3.4,-999.0,yes,yes,no,300234011244780,UPTEMPO,PSC-UPTEMPO,Healy,North
2013-09-03T00:00:00Z,1378166400,2013,0,0,246.0,-999.0,69.9632,-138.7296,1010.7,3.4,-999.0,yes,yes,no,300234011244780,UPTEMPO,PSC-UPTEMPO,Healy,North
2013-09-03T01:00:28Z,1378170029,2013,1,0,246.042,-999.0,69.9656,-138.7358,1010.5,3.32,-999.0,yes,yes,no,300234011244780,UPTEMPO,PSC-UPTEMPO,Healy,North
2013-09-03T01:59:31Z,1378173571,2013,2,0,246.083,-999.0,69.9672,-138.74,1010.5,3.24,-999.0,yes,yes,no,300234011244780,UPTEMPO,PSC-UPTEMPO,Healy,North
2013-09-03T03:00:00Z,1378177200,2013,3,0,246.125,-999.0,69.9676,-138.7438,1010.4,3.36,-999.0,yes,yes,no,300234011244780,UPTEMPO,PSC-UPTEMPO,Healy,North
2013-09-03T04:00:28Z,1378180829,2013,4,0,246.167,-999.0,69.9674,-138.7498,1010.2,3.4,-999.0,yes,yes,no,300234011244780,UPTEMPO,PSC-UPTEMPO,Healy,North
2013-09-03T04:59:31Z,1378184371,2013,5,0,246.208,-999.0,69.9664,-138.759,1010.1,3.42,-999.0,yes,yes,no,300234011244780,UPTEMPO,PSC-UPTEMPO,Healy,North
2013-09-03T06:00:00Z,1378188000,2013,6,0,246.25,-999.0,69.9646,-138.7738,1009.7,3.44,-999.0,yes,yes,no,300234011244780,UPTEMPO,PSC-UPTEMPO,Healy,North
2013-09-03T07:00:28Z,1378191629,2013,7,0,246.292,-999.0,69.963,-138.7938,1009.7,3.44,-999.0,yes,yes,no,300234011244780,UPTEMPO,PSC-UPTEMPO,Healy,North
2013-09-03T07:59:31Z,1378195171,2013,8,0,246.333,-999.0,69.9628,-138.8176,1009.8,3.44,-999.0,yes,yes,no,300234011244780,UPTEMPO,PSC-UPTEMPO,Healy,North
2013-09-03T09:00:00Z,1378198800,2013,9,0,246.375,-999.0,69.9638,-138.8432,1008.9,3.42,-999.0,yes,yes,no,300234011244780,UPTEMPO,PSC-UPTEMPO,Healy,North
2013-09-03T10:00:28Z,1378202429,2013,10,0,246.417,-999.0,69.9664,-138.8696,1008.2,3.44,-999.0,yes,yes,no,300234011244780,UPTEMPO,PSC-UPTEMPO,Healy,North
2013-09-03T10:59:31Z,1378205971,2013,11,0,246.458,-999.0,69.9708,-138.8954,1007.6,3.44,-999.0,yes,yes,no,300234011244780,UPTEMPO,PSC-UPTEMPO,Healy,North
2013-09-03T12:00:00Z,1378209600,2013,12,0,246.5,-999.0,69.9766,-138.9194,1006.6,3.54,-999.0,yes,yes,no,300234011244780,UPTEMPO,PSC-UPTEMPO,Healy,North
2013-09-03T13:00:28Z,1378213229,2013,13,0,246.542,-999.0,69.983,-138.9404,1006.0,3.56,-999.0,yes,yes,no,300234011244780,UPTEMPO,PSC-UPTEMPO,Healy,North
2013-09-03T13:59:31Z,1378216771,2013,14,0,246.583,-999.0,69.9892,-138.9604,1005.3,3.56,-999.0,yes,yes,no,300234011244780,UPTEMPO,PSC-UPTEMPO,Healy,North
2013-09-03T15:00:00Z,1378220400,2013,15,0,246.625,-999.0,69.9952,-138.9794,1004.8,3.64,-999.0,yes,yes,no,300234011244780,UPTEMPO,PSC-UPTEMPO,Healy,North
2013-09-03T16:00:28Z,1378224029,2013,16,0,246.667,-999.0,70.0014,-138.9996,1004.0,3.72,-999.0,yes,yes,no,300234011244780,UPTEMPO,PSC-UPTEMPO,Healy,North
2013-09-03T16:59:31Z,1378227571,2013,17,0,246.708,-999.0,70.0074,-139.0204,1003.9,3.72,-999.0,yes,yes,no,300234011244780,UPTEMPO,PSC-UPTEMPO,Healy,North
2013-09-03T18:00:00Z,1378231200,2013,18,0,246.75,-999.0,70.0136,-139.0416,1002.5,3.64,-999.0,yes,yes,no,300234011244780,UPTEMPO,PSC-UPTEMPO,Healy,North
2013-09-03T19:00:28Z,1378234829,2013,19,0,246.792,-999.0,70.0198,-139.0648,1001.3,3.64,-999.0,yes,yes,no,300234011244780,UPTEMPO,PSC-UPTEMPO,Healy,North
2013-09-03T19:59:31Z,1378238371,2013,20,0,246.833,-999.0,70.0268,-139.091,1000.6,3.56,-999.0,yes,yes,no,300234011244780,UPTEMPO,PSC-UPTEMPO,Healy,North
2013-09-03T21:00:00Z,1378242000,2013,21,0,246.875,-999.0,70.0352,-139.1204,999.6,3.48,-999.0,yes,yes,no,300234011244780,UPTEMPO,PSC-UPTEMPO,Healy,North
2013-09-03T22:00:28Z,1378245629,2013,22,0,246.917,-999.0,70.0446,-139.1508,998.7,3.4,-999.0,yes,yes,no,300234011244780,UPTEMPO,PSC-UPTEMPO,Healy,North
2013-09-03T22:59:31Z,1378249171,2013,23,0,246.958,-999.0,70.0544,-139.1818,998.0,3.24,-999.0,yes,yes,no,300234011244780,UPTEMPO,PSC-UPTEMPO,Healy,North
2013-09-04T00:00:00Z,1378252800,2013,0,0,247.0,-999.0,70.065,-139.2112,997.4,3.24,-999.0,yes,yes,no,300234011244780,UPTEMPO,PSC-UPTEMPO,Healy,North
2013-09-04T01:00:28Z,1378256429,2013,1,0,247.042,-999.0,70.0768,-139.2374,996.0,3.24,-999.0,yes,yes,no,300234011244780,UPTEMPO,PSC-UPTEMPO,Healy,North
2013-09-04T01:59:31Z,1378259971,2013,2,0,247.083,-999.0,70.0892,-139.26,995.3,3.16,-999.0,yes,yes,no,300234011244780,UPTEMPO,PSC-UPTEMPO,Healy,North
2013-09-04T03:00:00Z,1378263600,2013,3,0,247.125,-999.0,70.1022,-139.2784,995.2,3.12,-999.0,yes,yes,no,300234011244780,UPTEMPO,PSC-UPTEMPO,Healy,North
2013-09-04T04:00:28Z,1378267229,2013,4,0,247.167,-999.0,70.1144,-139.29,994.3,3.08,-999.0,yes,yes,no,300234011244780,UPTEMPO,PSC-UPTEMPO,Healy,North
2013-09-04T04:59:31Z,1378270771,2013,5,0,247.208,-999.0,70.1252,-139.2982,994.1,3.0,-999.0,yes,yes,no,300234011244780,UPTEMPO,PSC-UPTEMPO,Healy,North
2013-09-04T06:00:00Z,1378274400,2013,6,0,247.25,-999.0,70.1338,-139.306,994.1,2.98,-999.0,yes,yes,no,300234011244780,UPTEMPO,PSC-UPTEMPO,Healy,North
2013-09-04T07:00:28Z,1378278029,2013,7,0,247.292,-999.0,70.1416,-139.3114,993.9,2.88,-999.0,yes,yes,no,300234011244780,UPTEMPO,PSC-UPTEMPO,Healy,North
2013-09-04T07:59:31Z,1378281571,2013,8,0,247.333,-999.0,70.1454,-139.321,994.1,2.88,-999.0,yes,yes,no,300234011244780,UPTEMPO,PSC-UPTEMPO,Healy,North
2013-09-04T09:00:00Z,1378285200,2013,9,0,247.375,-999.0,70.1476,-139.3396,994.0,2.88,-999.0,yes,yes,no,300234011244780,UPTEMPO,PSC-UPTEMPO,Healy,North
2013-09-04T10:00:28Z,1378288829,2013,10,0,247.417,-999.0,70.1512,-139.3642,994.0,2.96,-999.0,yes,yes,no,300234011244780,UPTEMPO,PSC-UPTEMPO,Healy,North
2013-09-04T10:59:31Z,1378292371,2013,11,0,247.458,-999.0,70.1562,-139.3918,994.0,2.98,-999.0,yes,yes,no,300234011244780,UPTEMPO,PSC-UPTEMPO,Healy,North
2013-09-04T12:00:00Z,1378296000,2013,12,0,247.5,-999.0,70.1624,-139.4214,994.1,3.0,-999.0,yes,yes,no,300234011244780,UPTEMPO,PSC-UPTEMPO,Healy,North
2013-09-04T13:00:28Z,1378299629,2013,13,0,247.542,-999.0,70.1704,-139.451,994.3,3.04,-999.0,yes,yes,no,300234011244780,UPTEMPO,PSC-UPTEMPO,Healy,North
2013-09-04T13:59:31Z,1378303171,2013,14,0,247.583,-999.0,70.1792,-139.4792,994.3,3.08,-999.0,yes,yes,no,300234011244780,UPTEMPO,PSC-UPTEMPO,Healy,North
2013-09-04T15:00:00Z,1378306800,2013,15,0,247.625,-999.0,70.1876,-139.505,994.6,3.04,-999.0,yes,yes,no,300234011244780,UPTEMPO,PSC-UPTEMPO,Healy,North
2013-09-04T16:00:28Z,1378310429,2013,16,0,247.667,-999.0,70.197,-139.5294,994.7,3.24,-999.0,yes,yes,no,300234011244780,UPTEMPO,PSC-UPTEMPO,Healy,North
2013-09-04T16:59:31Z,1378313971,2013,17,0,247.708,-999.0,70.2066,-139.5498,994.9,3.24,-999.0,yes,yes,no,300234011244780,UPTEMPO,PSC-UPTEMPO,Healy,North
2013-09-04T18:00:00Z,1378317600,2013,18,0,247.75,-999.0,70.215,-139.5676,995.4,3.2,-999.0,yes,yes,no,300234011244780,UPTEMPO,PSC-UPTEMPO,Healy,North
2013-09-04T19:00:28Z,1378321229,2013,19,0,247.792,-999.0,70.2222,-139.5834,995.5,3.24,-999.0,yes,yes,no,300234011244780,UPTEMPO,PSC-UPTEMPO,Healy,North
2013-09-04T19:59:31Z,1378324771,2013,20,0,247.833,-999.0,70.227,-139.599,995.9,3.22,-999.0,yes,yes,no,300234011244780,UPTEMPO,PSC-UPTEMPO,Healy,North
2013-09-04T21:00:00Z,1378328400,2013,21,0,247.875,-999.0,70.231,-139.6176,996.5,3.24,-999.0,yes,yes,no,300234011244780,UPTEMPO,PSC-UPTEMPO,Healy,North
2013-09-04T22:00:28Z,1378332029,2013,22,0,247.917,-999.0,70.2352,-139.6386,996.9,3.2,-999.0,yes,yes,no,300234011244780,UPTEMPO,PSC-UPTEMPO,Healy,North
2013-09-04T22:59:31Z,1378335571,2013,23,0,247.958,-999.0,70.24,-139.662,997.3,3.24,-999.0,yes,yes,no,300234011244780,UPTEMPO,PSC-UPTEMPO,Healy,North
2013-09-05T00:00:00Z,1378339200,2013,0,0,248.0,-999.0,70.2442,-139.6868,997.9,3.36,-999.0,yes,yes,no,300234011244780,UPTEMPO,PSC-UPTEMPO,Healy,North
2013-09-05T01:00:28Z,1378342829,2013,1,0,248.042,-999.0,70.2484,-139.7134,998.0,3.4,-999.0,yes,yes,no,300234011244780,UPTEMPO,PSC-UPTEMPO,Healy,North
2013-09-05T01:59:31Z,1378346371,2013,2,0,248.083,-999.0,70.2532,-139.7406,998.6,3.44,-999.0,yes,yes,no,300234011244780,UPTEMPO,PSC-UPTEMPO,Healy,North
2013-09-05T03:00:00Z,1378350000,2013,3,0,248.125,-999.0,70.2598,-139.7662,999.1,3.44,-999.0,yes,yes,no,300234011244780,UPTEMPO,PSC-UPTEMPO,Healy,North
2013-09-05T04:00:28Z,1378353629,2013,4,0,248.167,-999.0,70.267,-139.789,999.7,3.48,-999.0,yes,yes,no,300234011244780,UPTEMPO,PSC-UPTEMPO,Healy,North
2013-09-05T04:59:31Z,1378357171,2013,5,0,248.208,-999.0,70.2732,-139.8104,1000.5,3.52,-999.0,yes,yes,no,300234011244780,UPTEMPO,PSC-UPTEMPO,Healy,North
2013-09-05T06:00:00Z,1378360800,2013,6,0,248.25,-999.0,70.2786,-139.8316,1000.9,3.52,-999.0,yes,yes,no,300234011244780,UPTEMPO,PSC-UPTEMPO,Healy,North
2013-09-05T07:00:28Z,1378364429,2013,7,0,248.292,-999.0,70.2834,-139.8516,1001.8,3.44,-999.0,yes,yes,no,300234011244780,UPTEMPO,PSC-UPTEMPO,Healy,North
2013-09-05T07:59:31Z,1378367971,2013,8,0,248.333,-999.0,70.288,-139.8686,1002.4,3.44,-999.0,yes,yes,no,300234011244780,UPTEMPO,PSC-UPTEMPO,Healy,North
2013-09-05T09:00:00Z,1378371600,2013,9,0,248.375,-999.0,70.2916,-139.883,1003.3,3.44,-999.0,yes,yes,no,300234011244780,UPTEMPO,PSC-UPTEMPO,Healy,North
2013-09-05T10:00:28Z,1378375229,2013,10,0,248.417,-999.0,70.2942,-139.8978,1004.2,3.44,-999.0,yes,yes,no,300234011244780,UPTEMPO,PSC-UPTEMPO,Healy,North
2013-09-05T10:59:31Z,1378378771,2013,11,0,248.458,-999.0,70.2954,-139.9138,1004.9,3.32,-999.0,yes,yes,no,300234011244780,UPTEMPO,PSC-UPTEMPO,Healy,North
2013-09-05T12:00:00Z,1378382400,2013,12,0,248.5,-999.0,70.2958,-139.932,1005.4,3.32,-999.0,yes,yes,no,300234011244780,UPTEMPO,PSC-UPTEMPO,Healy,North
2013-09-05T13:00:28Z,1378386029,2013,13,0,248.542,-999.0,70.2968,-139.9532,1006.1,3.28,-999.0,yes,yes,no,300234011244780,UPTEMPO,PSC-UPTEMPO,Healy,North
2013-09-05T13:59:31Z,1378389571,2013,14,0,248.583,-999.0,70.2992,-139.9756,1006.8,3.36,-999.0,yes,yes,no,300234011244780,UPTEMPO,PSC-UPTEMPO,Healy,North
2013-09-05T15:00:00Z,1378393200,2013,15,0,248.625,-999.0,70.302,-139.9962,1007.3,3.32,-999.0,yes,yes,no,300234011244780,UPTEMPO,PSC-UPTEMPO,Healy,North
2013-09-05T16:00:28Z,1378396829,2013,16,0,248.667,-999.0,70.3054,-140.0162,1008.0,3.32,-999.0,yes,yes,no,300234011244780,UPTEMPO,PSC-UPTEMPO,Healy,North
2013-09-05T16:59:31Z,1378400371,2013,17,0,248.708,-999.0,70.3088,-140.0358,1008.7,3.4,-999.0,yes,yes,no,300234011244780,UPTEMPO,PSC-UPTEMPO,Healy,North
2013-09-05T18:00:00Z,1378404000,2013,18,0,248.75,-999.0,70.3118,-140.0542,1009.4,3.42,-999.0,yes,yes,no,300234011244780,UPTEMPO,PSC-UPTEMPO,Healy,North
2013-09-05T19:00:28Z,1378407629,2013,19,0,248.792,-999.0,70.314,-140.0712,1009.6,3.52,-999.0,yes,yes,no,300234011244780,UPTEMPO,PSC-UPTEMPO,Healy,North
2013-09-05T19:59:31Z,1378411171,2013,20,0,248.833,-999.0,70.316,-140.0882,1010.1,3.6,-999.0,yes,yes,no,300234011244780,UPTEMPO,PSC-UPTEMPO,Healy,North
2013-09-05T21:00:00Z,1378414800,2013,21,0,248.875,-999.0,70.3178,-140.1064,1010.4,3.64,-999.0,yes,yes,no,300234011244780,UPTEMPO,PSC-UPTEMPO,Healy,North
2013-09-05T22:00:28Z,1378418429,2013,22,0,248.917,-999.0,70.319,-140.126,1010.6,3.64,-999.0,yes,yes,no,300234011244780,UPTEMPO,PSC-UPTEMPO,Healy,North
2013-09-05T22:59:31Z,1378421971,2013,23,0,248.958,-999.0,70.3198,-140.147,1011.3,3.56,-999.0,yes,yes,no,300234011244780,UPTEMPO,PSC-UPTEMPO,Healy,North
2013-09-06T00:00:00Z,1378425600,2013,0,0,249.0,-999.0,70.321,-140.1684,1011.5,3.6,-999.0,yes,yes,no,300234011244780,UPTEMPO,PSC-UPTEMPO,Healy,North
2013-09-06T01:00:28Z,1378429229,2013,1,0,249.042,-999.0,70.3224,-140.1898,1011.5,3.56,-999.0,yes,yes,no,300234011244780,UPTEMPO,PSC-UPTEMPO,Healy,North
2013-09-06T01:59:31Z,1378432771,2013,2,0,249.083,-999.0,70.3244,-140.2128,1011.9,3.56,-999.0,yes,yes,no,300234011244780,UPTEMPO,PSC-UPTEMPO,Healy,North
2013-09-06T03:00:00Z,1378436400,2013,3,0,249.125,-999.0,70.327,-140.2352,1013.5,3.56,-999.0,yes,yes,no,300234011244780,UPTEMPO,PSC-UPTEMPO,Healy,North
2013-09-06T04:00:28Z,1378440029,2013,4,0,249.167,-999.0,70.3294,-140.2554,1013.3,3.56,-999.0,yes,yes,no,300234011244780,UPTEMPO,PSC-UPTEMPO,Healy,North
2013-09-06T04:59:31Z,1378443571,2013,5,0,249.208,-999.0,70.3314,-140.2754,1012.2,3.54,-999.0,yes,yes,no,300234011244780,UPTEMPO,PSC-UPTEMPO,Healy,North
2013-09-06T06:00:00Z,1378447200,2013,6,0,249.25,-999.0,70.3334,-140.2956,1013.5,3.52,-999.0,yes,yes,no,300234011244780,UPTEMPO,PSC-UPTEMPO,Healy,North
2013-09-06T07:00:28Z,1378450829,2013,7,0,249.292,-999.0,70.3358,-140.3172,1013.6,3.52,-999.0,yes,yes,no,300234011244780,UPTEMPO,PSC-UPTEMPO,Healy,North
2013-09-06T07:59:31Z,1378454371,2013,8,0,249.333,-999.0,70.3388,-140.34,1013.5,3.52,-999.0,yes,yes,no,300234011244780,UPTEMPO,PSC-UPTEMPO,Healy,North
2013-09-06T09:00:00Z,1378458000,2013,9,0,249.375,-999.0,70.3424,-140.3612,1013.9,3.54,-999.0,yes,yes,no,300234011244780,UPTEMPO,PSC-UPTEMPO,Healy,North
2013-09-06T10:00:28Z,1378461629,2013,10,0,249.417,-999.0,70.3464,-140.3784,1013.8,3.52,-999.0,yes,yes,no,300234011244780,UPTEMPO,PSC-UPTEMPO,Healy,North